SPACEBEENZ-7 (48889 NORAD) Tracking and Keplerian Element Data

This shows tracking and keplerian element data for the satellite.

Feedback or suggestion? Click here.




ElementValue
Catalog48889
NameSPACEBEENZ-7
Epoch Orbit1394
Epoch Day269.06884843
Epoch Year2021
RAAN36.5322
Inclination97.5266
Eccentricity0.0008064
Argument of Perigee302.9611
Mean Anonmoly57.0843
Mean Motion15.12417075
Decay Rate4.498E-05
L11 48889U 21059L 21269.06884843 .00004498 00000-0 26252-3 0 9990
L22 48889 97.5266 36.5322 0008064 302.9611 57.0843 15.12417075 13942

Live tracking and technical data element details for SPACEBEENZ-7 (NORAD 48889). SPACEBEENZ-7 can be tracked NOW for your location showing map with azimuth and elevation plus other details from your city location.

Track the satellite on the map from your city or location and see movement details for azimuth, elevation, latitude, longitude, range, height, and movement on the map or in text.







IsCatalogInMostPopularTable: catalog: 48889, numindb: 16
Update: records affected: 1



GetName: 48889 SPACEBEENZ-7

Hit Count: updated at: Sun, 26 Sep 2021 14:48:23 GMT